Location: Bessat
(45.8735°N, 1.9924°E)
Time: 04:00:00
(UTC+00:00)

Cosmos 2228 Rocket - Pass Details

Date: 11 May 2021
Orbit: 618 x 651 km, 82.5° (Epoch: 14 June)

Event Time Altitude Azimuth Distance (km) Brightness Sun altitude
Exits shadow 21:45:36 46° 182° (S) 842 3.3 -20.2°
Maximum altitude 21:46:53 85° 98° (E) 636 3.0 -20.3°
Drops below altitude 10° 21:51:23 10° 10° (N) 2,024 6.4 -20.7°
Sets 21:53:39 0° 10° (N) 2,942 7.3 -20.9°
